AirNav   TITAN Aviation Fuels
 
 788 users online  

61TX Traylor Tick Farm Airport
Bellville, Texas, USA

GOING TO BELLVILLE?


FAA INFORMATION EFFECTIVE 22 APRIL 2021

Location

FAA Identifier: 61TX
Lat/Long: 29-58-20.8070N 096-18-25.8730W
29-58.346783N 096-18.431217W
29.9724464,-96.3071869
(estimated)
Elevation: 250 ft. / 76 m (estimated)
Variation: 06E (1985)
From city: 3 miles NW of BELLVILLE, TX
Time zone: UTC -5 (UTC -6 during Standard Time)
Zip code: 77418

Airport Operations

Airport use: Private use. Permission required prior to landing
Activation date: 04/1977
Control tower: no
ARTCC: HOUSTON CENTER
FSS: MONTGOMERY COUNTY FLIGHT SERVICE STATION
Attendance: UNATNDD
Wind indicator: yes
Segmented circle: no

Airport Communications

WX AWOS-3 at 11R (15 nm N): 121.125 (979-836-2303)

Nearby radio navigation aids

VOR radial/distance  VOR name  Freq  Var
IDUr078/13.3INDUSTRY VORTAC110.2008E
ELAr354/18.6EAGLE LAKE VOR/DME116.4008E
TNVr206/22.9NAVASOTA VOR/DME115.9008E
CLLr163/38.4COLLEGE STATION VORTAC113.3008E

Airport Services

Runway Information

Runway 2/20

Dimensions: 1800 x 80 ft. / 549 x 24 m
Surface: turf
RUNWAY 2  RUNWAY 20
Traffic pattern: leftleft
Obstructions: nonetrees

Airport Ownership and Management from official FAA records

Ownership: Privately-owned
Owner: THOMAS M TRAYLOR
PO BOX 804
BELLEVILLE, TX 77418
Phone 979-830-3578
Manager: THOMAS M TRAYLOR
PO BOX 804
BELLEVILLE, TX 77418
Phone 979-830-3578
SPECIALIZED DISTRIBUTING

Airport Operational Statistics

Aircraft based on the field: 2
Single engine airplanes: 2
    

Additional Remarks

FOR CD CTC HOUSTON APCH AT 281-443-5844.

Instrument Procedures

There are no published instrument procedures at 61TX.

Some nearby airports with instrument procedures:

11R - Brenham Municipal Airport (15 nm N)
KELA - Eagle Lake Airport (22 nm S)
KTME - Houston Executive Airport (24 nm SE)
60R - Navasota Municipal Airport (26 nm NE)
3T5 - Fayette Regional Air Center Airport (34 nm W)
 
Loc | Ops | Rwys | IFR | FBO | Links
Com | Nav | Svcs | Stats | Notes
Area around 61TX (Traylor Tick Farm Airport)
 
Road maps at: MapQuest Bing Google
 
Aerial photo
No photo
 
Sectional chart

 
Airport distance calculator
Flying to Traylor Tick Farm Airport? Find the distance to fly.

From to 61TX

Sunrise and sunset
Times for 11-May-2021
 Local
(UTC-5)
 Zulu
(UTC)
Morning civil twilight06:1011:10
Sunrise06:3511:35
Sunset20:0801:08
Evening civil twilight20:3401:34

Current date and time
Zulu (UTC)  12-May-2021 03:37:06
Local (UTC-5)  11-May-2021 22:37:06
 
METAR
K11R 
15nm N 
120315Z AUTO 35005KT 10SM SCT055 20/18 A3004 RMK AO2 LTG DSNT S T02020176
KELA 
22nm S 
120315Z AUTO 05007KT 10SM CLR 20/18 A2997 RMK AO2 LTG DSNT SW T02020180
K66R 
23nm SW 
120315Z AUTO 00000KT 10SM CLR 19/18 A3002 RMK AO2 LTG DSNT SW T01900179
KTME 
24nm SE 
120315Z AUTO 08009G14KT 10SM FEW039 FEW050 SCT070 21/18 A2998 RMK AO2
TAF
KCLL 
37nm N 
120110Z 1201/1224 VRB10KT P6SM -SHRA SCT015 SCT030 OVC060 FM120300 03010G20KT 6SM BR VCSH SCT007 BKN015 BKN045 FM120900 04010KT 4SM BR SCT007 BKN015 BKN070 FM121500 02010KT P6SM BKN015 BKN090 FM122000 02012KT P6SM SCT025 BKN045 BKN080
KSGR 
40nm SE 
112259Z 1123/1218 15015G20KT P6SM SCT035 TEMPO 1123/1124 35020G35KT -RA FM120000 13007KT P6SM SCT015 BKN050 FM120200 07010KT P6SM VCTS BKN025CB TEMPO 1203/1206 4SM TSRA BKN015CB FM120600 03010KT 6SM -SHRA BR VCTS OVC015CB FM121100 04012KT P6SM VCSH SCT008 OVC015
NOTAMs
Click for the latest NOTAMs
NOTAMs are issued by the DoD/FAA and will open in a separate window not controlled by AirNav.

 

 
 

Would you like to see your business listed on this page?

 If your business provides an interesting product or service to pilots, flight crews, aircraft, or users of the Traylor Tick Farm Airport, you should consider listing it here.  To start the listing process, click on the button below
 
Add a business
 

Other Pages about Traylor Tick Farm Airport

Update a link
 
Copyright © AirNav, LLC. All rights reserved. Privacy Policy  Contact